Simultaneous Nadir Overpasses (SNOs) Predictions

Prediction of SNOs between LANDSAT-8 and METOP-B Satellite Orbit:

Table of predicted SNOs for the next 14.0 days since TLE Epoch: 2/20/2021
Index Date (LANDSAT-8) Time (LANDSAT-8) Lat,Lon (LANDSAT-8) SZA (LANDSAT-8 ) Date (METOP-B) Time (METOP-B) Lat,Lon (METOP-B) SZA (METOP-B ) Distance(km) Time Diff (sec)
1 02/22/2021 08:57:59 81.13, 85.25 92.84 02/22/2021 08:57:13 81.13, 85.38 92.83 2.20 46
2 02/22/2021 09:47:25 -81.15,-106.84 87.14 02/22/2021 09:47:53 -81.15,-106.74 87.12 1.67 28
3 02/25/2021 04:32:13 81.11, 151.36 91.77 02/25/2021 04:31:35 81.11, 151.19 91.74 3.03 38
4 02/25/2021 05:21:38 -81.15, -40.34 88.16 02/25/2021 05:22:13 -81.15, -40.16 88.12 2.97 35
5 02/28/2021 00:06:26 81.13,-141.83 90.78 02/28/2021 00:05:55 81.13,-141.88 90.76 1.23 31
6 02/28/2021 00:55:52 -81.15, 26.14 89.19 02/28/2021 00:56:35 -81.15, 26.03 89.19 2.06 43
7 03/02/2021 19:40:40 81.13, -75.41 89.72 03/02/2021 19:40:16 81.13, -75.34 89.72 1.20 24
8 03/02/2021 20:30:06 -81.15, 92.58 90.25 03/02/2021 20:30:56 -81.15, 92.58 90.23 0.34 50
9 03/05/2021 15:14:53 81.13, -9.02 88.65 03/05/2021 15:14:37 81.12, -9.18 88.62 2.77 16



Historial Predications of SNOs between LANDSAT-8 and METOP-B
